Location: Grasslands National Park East Block
(49.0708°N, 106.5295°W)
Time: 00:38:32
(UTC-06:00)

Vanguard 1 - Pass Details

Date: 28 September 2019
Orbit: 653 x 3830 km, 34.2° (Epoch: 17 October)

Event Time Altitude Azimuth Distance (km) Brightness Sun altitude
Rises 00:56:12 0° 224° (SW) 6,917 - -42.9°
Reaches altitude 10° 01:00:45 10° 218° (SW) 6,227 - -42.9°
Maximum altitude 01:20:03 43° 156° (SSE) 4,707 - -42.6°
Exits shadow 01:24:39 40° 133° (SE) 4,831 13.1 -42.5°
Drops below altitude 10° 01:39:52 10° 94° (E) 6,409 14.2 -42.0°
Sets 01:44:34 0° 88° (E) 7,130 14.6 -41.8°
